When you browse on this site, cookies collect data to enhance your experience and personalize the content and advertising you see.
Visit our Privacy Policy to learn more. By continuing to use the site, you agree to this use of cookies and data.

Meteo pe oră la Cuiaba

Astăzi, 11 August, Marţi

Timp Temperatura Precipitaţii Vânt Presiune Umiditate
00:00 +24°C° 0 mm 1 m/s 739 mmHg 38%
01:00 +24°C° 0 mm 1 m/s 739 mmHg 39%
02:00 +24°C° 0 mm 1 m/s 739 mmHg 40%
03:00 +23°C° 0 mm 1 m/s 739 mmHg 42%
04:00 +22°C° 0 mm 1 m/s 739 mmHg 44%
05:00 +22°C° 0 mm 1 m/s 739 mmHg 46%
06:00 +24°C° 0 mm 1 m/s 740 mmHg 41%
07:00 +27°C° 0 mm 2 m/s 740 mmHg 36%
08:00 +29°C° 0 mm 2 m/s 741 mmHg 30%
09:00 +32°C° 0 mm 2 m/s 741 mmHg 26%
10:00 +36°C° 0 mm 2 m/s 741 mmHg 22%
11:00 +39°C° 0 mm 2 m/s 741 mmHg 17%
12:00 +40°C° 0 mm 2 m/s 740 mmHg 16%
13:00 +41°C° 0 mm 2 m/s 740 mmHg 15%
14:00 +42°C° 0 mm 1 m/s 739 mmHg 14%
15:00 +40°C° 0 mm 1 m/s 738 mmHg 16%
16:00 +39°C° 0 mm 1 m/s 738 mmHg 17%
17:00 +36°C° 0 mm 1 m/s 737 mmHg 19%
18:00 +33°C° 0 mm 1 m/s 738 mmHg 22%
19:00 +31°C° 0 mm 1 m/s 738 mmHg 26%
20:00 +28°C° 0 mm 1 m/s 738 mmHg 30%
21:00 +27°C° 0 mm 1 m/s 738 mmHg 31%
22:00 +27°C° 0 mm 1 m/s 738 mmHg 32%
23:00 +26°C° 0 mm 1 m/s 739 mmHg 33%

Mâine, 12 August, Miercuri

Timp Temperatura Precipitaţii Vânt Presiune Umiditate
00:00 +25°C° 0 mm 1 m/s 738 mmHg 35%
01:00 +25°C° 0 mm 1 m/s 738 mmHg 36%
02:00 +24°C° 0 mm 1 m/s 738 mmHg 37%
03:00 +24°C° 0 mm 1 m/s 738 mmHg 38%
04:00 +23°C° 0 mm 1 m/s 738 mmHg 39%
05:00 +23°C° 0 mm 1 m/s 738 mmHg 40%
06:00 +25°C° 0 mm 1 m/s 738 mmHg 36%
07:00 +28°C° 0 mm 1 m/s 739 mmHg 31%
08:00 +30°C° 0 mm 2 m/s 739 mmHg 26%
09:00 +34°C° 0 mm 2 m/s 739 mmHg 22%
10:00 +37°C° 0 mm 3 m/s 739 mmHg 18%
11:00 +42°C° 0 mm 4 m/s 739 mmHg 14%
12:00 +42°C° 0 mm 4 m/s 738 mmHg 14%
13:00 +43°C° 0 mm 3 m/s 737 mmHg 13%
14:00 +44°C° 0 mm 3 m/s 736 mmHg 12%
15:00 +43°C° 0 mm 3 m/s 736 mmHg 13%
16:00 +41°C° 0 mm 2 m/s 735 mmHg 14%
17:00 +40°C° 0 mm 2 m/s 735 mmHg 14%
18:00 +37°C° 0 mm 2 m/s 735 mmHg 17%
19:00 +34°C° 0 mm 2 m/s 736 mmHg 20%
20:00 +30°C° 0 mm 2 m/s 736 mmHg 23%
21:00 +29°C° 0 mm 2 m/s 736 mmHg 24%
22:00 +29°C° 0 mm 2 m/s 736 mmHg 25%
23:00 +28°C° 0 mm 2 m/s 737 mmHg 26%

Poimâine, 13 August, Joi

Timp Temperatura Precipitaţii Vânt Presiune Umiditate
00:00 +27°C° 0 mm 2 m/s 736 mmHg 27%
01:00 +27°C° 0 mm 2 m/s 736 mmHg 28%
02:00 +26°C° 0 mm 2 m/s 736 mmHg 29%
03:00 +26°C° 0 mm 2 m/s 736 mmHg 30%
04:00 +26°C° 0 mm 2 m/s 736 mmHg 31%
05:00 +25°C° 0 mm 2 m/s 736 mmHg 32%
06:00 +27°C° 0 mm 2 m/s 737 mmHg 29%
07:00 +29°C° 0 mm 3 m/s 738 mmHg 26%
08:00 +33°C° 0 mm 3 m/s 738 mmHg 23%
09:00 +36°C° 0 mm 3 m/s 738 mmHg 19%
10:00 +40°C° 0 mm 4 m/s 738 mmHg 16%
11:00 +43°C° 0 mm 5 m/s 738 mmHg 12%
12:00 +44°C° 0 mm 4 m/s 737 mmHg 12%
13:00 +44°C° 0 mm 3 m/s 736 mmHg 12%
14:00 +45°C° 0 mm 3 m/s 735 mmHg 11%
15:00 +43°C° 0 mm 2 m/s 735 mmHg 12%
16:00 +42°C° 0 mm 2 m/s 735 mmHg 13%
17:00 +41°C° 0 mm 2 m/s 734 mmHg 14%
18:00 +38°C° 0 mm 2 m/s 735 mmHg 17%
19:00 +35°C° 0 mm 2 m/s 735 mmHg 20%
20:00 +31°C° 0 mm 2 m/s 735 mmHg 23%
21:00 +30°C° 0 mm 2 m/s 735 mmHg 24%
22:00 +30°C° 0 mm 2 m/s 736 mmHg 25%
23:00 +29°C° 0 mm 2 m/s 736 mmHg 26%

14 August, Vineri

Timp Temperatura Precipitaţii Vânt Presiune Umiditate
00:00 +29°C° 0 mm 2 m/s 736 mmHg 26%
01:00 +28°C° 0 mm 2 m/s 735 mmHg 27%
02:00 +28°C° 0 mm 2 m/s 735 mmHg 28%
03:00 +28°C° 0 mm 2 m/s 735 mmHg 28%
04:00 +28°C° 0 mm 2 m/s 735 mmHg 28%
05:00 +27°C° 0 mm 3 m/s 736 mmHg 29%
06:00 +30°C° 0 mm 3 m/s 736 mmHg 26%
07:00 +33°C° 0 mm 4 m/s 737 mmHg 23%
08:00 +35°C° 0 mm 5 m/s 738 mmHg 20%
09:00 +39°C° 0 mm 5 m/s 737 mmHg 18%
10:00 +41°C° 0 mm 5 m/s 737 mmHg 15%
11:00 +45°C° 0 mm 5 m/s 737 mmHg 13%
12:00 +46°C° 0 mm 5 m/s 736 mmHg 12%
13:00 +45°C° 0 mm 4 m/s 735 mmHg 12%
14:00 +46°C° 0 mm 3 m/s 734 mmHg 11%
15:00 +45°C° 0 mm 3 m/s 734 mmHg 12%
16:00 +44°C° 0 mm 3 m/s 734 mmHg 13%
17:00 +43°C° 0 mm 3 m/s 734 mmHg 14%
18:00 +39°C° 0 mm 2 m/s 734 mmHg 16%
19:00 +36°C° 0 mm 2 m/s 735 mmHg 19%
20:00 +32°C° 0 mm 2 m/s 735 mmHg 22%
21:00 +31°C° 0 mm 2 m/s 735 mmHg 23%
22:00 +30°C° 0 mm 2 m/s 735 mmHg 24%
23:00 +29°C° 0 mm 2 m/s 736 mmHg 25%

15 August, Sâmbătă

Timp Temperatura Precipitaţii Vânt Presiune Umiditate
00:00 +29°C° 0 mm 2 m/s 735 mmHg 26%
01:00 +28°C° 0 mm 2 m/s 735 mmHg 27%
02:00 +28°C° 0 mm 2 m/s 735 mmHg 27%
03:00 +27°C° 0 mm 2 m/s 735 mmHg 28%
04:00 +27°C° 0 mm 2 m/s 735 mmHg 29%
05:00 +27°C° 0 mm 2 m/s 735 mmHg 30%
06:00 +29°C° 0 mm 3 m/s 736 mmHg 28%
07:00 +31°C° 0 mm 3 m/s 737 mmHg 25%
08:00 +34°C° 0 mm 3 m/s 737 mmHg 23%
09:00 +37°C° 0 mm 4 m/s 737 mmHg 20%
10:00 +41°C° 0 mm 4 m/s 737 mmHg 16%
11:00 +45°C° 0 mm 5 m/s 737 mmHg 13%
12:00 +45°C° 0 mm 4 m/s 736 mmHg 12%
13:00 +45°C° 0 mm 4 m/s 736 mmHg 12%
14:00 +46°C° 0 mm 3 m/s 735 mmHg 11%
15:00 +45°C° 0 mm 3 m/s 734 mmHg 12%
16:00 +43°C° 0 mm 2 m/s 734 mmHg 13%
17:00 +42°C° 0 mm 2 m/s 734 mmHg 13%
18:00 +39°C° 0 mm 2 m/s 734 mmHg 16%
19:00 +36°C° 0 mm 2 m/s 735 mmHg 18%
20:00 +33°C° 0 mm 1 m/s 735 mmHg 21%
21:00 +32°C° 0 mm 1 m/s 735 mmHg 22%
22:00 +31°C° 0 mm 1 m/s 736 mmHg 23%
23:00 +30°C° 0 mm 1 m/s 736 mmHg 24%

16 August, Duminică

Timp Temperatura Precipitaţii Vânt Presiune Umiditate
00:00 +29°C° 0 mm 2 m/s 736 mmHg 25%
01:00 +29°C° 0 mm 3 m/s 736 mmHg 27%
02:00 +28°C° 0 mm 3 m/s 736 mmHg 29%
03:00 +27°C° 0 mm 3 m/s 736 mmHg 40%
04:00 +26°C° 0 mm 2 m/s 736 mmHg 52%
05:00 +24°C° 0 mm 2 m/s 736 mmHg 63%
06:00 +26°C° 0 mm 2 m/s 737 mmHg 61%
07:00 +27°C° 0 mm 3 m/s 738 mmHg 59%
08:00 +29°C° 0 mm 3 m/s 739 mmHg 57%
09:00 +31°C° 0 mm 3 m/s 738 mmHg 48%
10:00 +35°C° 0 mm 3 m/s 738 mmHg 40%
11:00 +38°C° 0 mm 2 m/s 738 mmHg 31%
12:00 +40°C° 0 mm 2 m/s 737 mmHg 27%
13:00 +42°C° 0 mm 1 m/s 736 mmHg 22%
14:00 +44°C° 0 mm 1 m/s 735 mmHg 18%
15:00 +42°C° 0 mm 1 m/s 735 mmHg 20%
16:00 +41°C° 0 mm 1 m/s 735 mmHg 21%
17:00 +39°C° 0 mm 1 m/s 734 mmHg 22%
18:00 +36°C° 0 mm 1 m/s 735 mmHg 27%
19:00 +33°C° 0 mm 1 m/s 735 mmHg 33%
20:00 +31°C° 0 mm 1 m/s 735 mmHg 38%
21:00 +30°C° 0 mm 1 m/s 735 mmHg 41%
22:00 +29°C° 0 mm 1 m/s 735 mmHg 43%
23:00 +28°C° 0 mm 1 m/s 736 mmHg 46%
Arată mai mult